Location: Unspecified
(32.5099°N, 80.0190°W)
Time: 13:02:58
(UTC-04:00)

CZ-3 Stage 3 - Visible Passes

Search period start: 04 July 2015 00:00
Search period end: 14 July 2015 00:00
Orbit: 427 x 34799 km, 31.0° (Epoch: 01 July)

Date Brightness Start Highest point End Pass type
(mag) Time Alt. Az. Time Alt. Az. Time Alt. Az.
06 Jul 6.4 02:33:47 16° SE 02:42:54 24° ESE 11:37:40 10° ESE visible
09 Jul 6.3 02:28:50 18° SE 02:37:07 26° ESE 11:32:57 10° ESE visible
11 Jul 6.4 05:51:47 10° WSW 06:23:40 80° SSE 15:20:18 10° SSE visible
12 Jul 6.3 02:23:54 21° SE 02:31:21 28° ESE 11:28:12 10° ESE visible
